Time,TemperatureF,DewpointF,PressureIn,WindDirection,WindDirectionDegrees,WindSpeedMPH,WindSpeedGustMPH,Humidity,HourlyPrecipIn,Conditions,Clouds,dailyrainin,SoftwareType,DateUTC
2015-08-28 00:00:00,59.4,50.3,29.29,NE,51,0.0,0.0,72,0.00,,---,0.00,VWS V15.00,2015-08-28 05:00:00,
2015-08-28 00:05:00,59.4,50.3,29.29,NE,51,0.0,0.0,72,0.00,,---,0.00,VWS V15.00,2015-08-28 05:05:00,
2015-08-28 00:10:00,59.2,50.2,29.29,NE,51,0.0,0.0,72,0.00,,---,0.00,VWS V15.00,2015-08-28 05:10:00,
2015-08-28 00:15:00,59.2,50.5,29.29,NE,51,0.0,0.0,73,0.00,,---,0.00,VWS V15.00,2015-08-28 05:15:00,
2015-08-28 00:20:00,59.0,50.4,29.29,NE,51,0.0,0.0,73,0.00,,---,0.00,VWS V15.00,2015-08-28 05:20:00,
2015-08-28 00:25:00,59.0,50.4,29.29,NE,51,0.0,0.0,73,0.00,,---,0.00,VWS V15.00,2015-08-28 05:25:00,
2015-08-28 00:30:00,58.8,50.6,29.29,NE,51,0.0,0.0,74,0.00,,---,0.00,VWS V15.00,2015-08-28 05:30:00,
2015-08-28 00:35:00,58.6,50.4,29.29,NE,51,0.0,0.0,74,0.00,,---,0.00,VWS V15.00,2015-08-28 05:35:00,
2015-08-28 00:40:00,58.8,50.6,29.29,NE,51,0.0,0.0,74,0.00,,---,0.00,VWS V15.00,2015-08-28 05:40:00,
2015-08-28 00:45:00,58.8,50.6,29.29,NE,51,0.0,0.0,74,0.00,,---,0.00,VWS V15.00,2015-08-28 05:45:00,
2015-08-28 00:50:00,58.8,50.9,29.29,NE,51,0.0,0.0,75,0.00,,---,0.00,VWS V15.00,2015-08-28 05:50:00,
2015-08-28 00:55:00,58.6,50.8,29.29,NE,51,0.0,0.0,75,0.00,,---,0.00,VWS V15.00,2015-08-28 05:55:00,
2015-08-28 01:00:00,58.6,50.8,29.29,NE,51,0.0,0.0,75,0.00,,---,0.00,VWS V15.00,2015-08-28 06:00:00,
2015-08-28 01:05:00,58.6,50.8,29.29,NE,51,0.0,0.0,75,0.00,,---,0.00,VWS V15.00,2015-08-28 06:05:00,
2015-08-28 01:10:00,58.5,50.9,29.29,NE,51,0.0,0.0,76,0.00,,---,0.00,VWS V15.00,2015-08-28 06:10:00,
2015-08-28 01:15:00,58.3,50.8,29.29,NE,51,0.0,0.0,76,0.00,,---,0.00,VWS V15.00,2015-08-28 06:15:00,
2015-08-28 01:20:00,58.3,50.8,29.29,NE,51,0.0,0.0,76,0.00,,---,0.00,VWS V15.00,2015-08-28 06:20:00,
2015-08-28 01:25:00,58.3,50.8,29.29,NE,51,0.0,0.0,76,0.00,,---,0.00,VWS V15.00,2015-08-28 06:25:00,
2015-08-28 01:30:00,58.3,50.8,29.29,NE,51,0.0,0.0,76,0.00,,---,0.00,VWS V15.00,2015-08-28 06:30:00,
2015-08-28 01:35:00,58.1,50.6,29.29,NE,51,0.0,0.0,76,0.00,,---,0.00,VWS V15.00,2015-08-28 06:35:00,
2015-08-28 01:40:00,58.1,50.9,29.29,NE,51,0.0,0.0,77,0.00,,---,0.00,VWS V15.00,2015-08-28 06:40:00,
2015-08-28 01:45:00,58.1,50.9,29.29,NE,51,0.0,0.0,77,0.00,,---,0.00,VWS V15.00,2015-08-28 06:45:00,
2015-08-28 01:50:00,58.1,50.9,29.29,NE,51,0.0,0.0,77,0.00,,---,0.00,VWS V15.00,2015-08-28 06:50:00,
2015-08-28 01:55:00,57.9,50.8,29.29,NE,51,0.0,0.0,77,0.00,,---,0.00,VWS V15.00,2015-08-28 06:55:00,
2015-08-28 02:00:00,57.9,50.8,29.29,NE,51,0.0,0.0,77,0.00,,---,0.00,VWS V15.00,2015-08-28 07:00:00,
2015-08-28 02:05:00,57.9,50.8,29.29,NE,51,0.0,0.0,77,0.00,,---,0.00,VWS V15.00,2015-08-28 07:05:00,
2015-08-28 02:10:00,57.7,50.9,29.29,NE,51,0.0,0.0,78,0.00,,---,0.00,VWS V15.00,2015-08-28 07:10:00,
2015-08-28 02:15:00,57.6,50.8,29.26,NE,51,0.0,0.0,78,0.00,,---,0.00,VWS V15.00,2015-08-28 07:15:00,
2015-08-28 02:20:00,57.6,50.8,29.26,NE,51,0.0,0.0,78,0.00,,---,0.00,VWS V15.00,2015-08-28 07:20:00,
2015-08-28 02:25:00,57.4,50.6,29.26,NE,51,0.0,0.0,78,0.00,,---,0.00,VWS V15.00,2015-08-28 07:25:00,
2015-08-28 02:30:00,57.6,50.8,29.29,NE,51,0.0,0.0,78,0.00,,---,0.00,VWS V15.00,2015-08-28 07:30:00,
2015-08-28 02:35:00,57.4,50.6,29.29,NE,51,0.0,0.0,78,0.00,,---,0.00,VWS V15.00,2015-08-28 07:35:00,
2015-08-28 02:40:00,57.4,50.6,29.29,NE,51,0.0,0.0,78,0.00,,---,0.00,VWS V15.00,2015-08-28 07:40:00,
2015-08-28 02:45:00,57.2,50.4,29.29,NE,51,0.0,0.0,78,0.00,,---,0.00,VWS V15.00,2015-08-28 07:45:00,
2015-08-28 02:50:00,57.2,50.8,29.29,NE,51,0.0,0.0,79,0.00,,---,0.00,VWS V15.00,2015-08-28 07:50:00,
2015-08-28 02:55:00,57.0,50.6,29.29,NE,51,0.0,0.0,79,0.00,,---,0.00,VWS V15.00,2015-08-28 07:55:00,
2015-08-28 03:00:00,56.8,50.4,29.29,NE,51,0.0,0.0,79,0.00,,---,0.00,VWS V15.00,2015-08-28 08:00:00,
2015-08-28 03:05:00,56.8,50.4,29.29,NE,51,0.0,0.0,79,0.00,,---,0.00,VWS V15.00,2015-08-28 08:05:00,
2015-08-28 03:10:00,56.8,50.4,29.29,NE,51,0.0,0.0,79,0.00,,---,0.00,VWS V15.00,2015-08-28 08:10:00,
2015-08-28 03:15:00,56.7,50.2,29.29,NE,51,0.0,0.0,79,0.00,,---,0.00,VWS V15.00,2015-08-28 08:15:00,
2015-08-28 03:20:00,56.7,50.6,29.29,NE,51,0.0,0.0,80,0.00,,---,0.00,VWS V15.00,2015-08-28 08:20:00,
2015-08-28 03:25:00,56.7,50.6,29.29,NE,51,0.0,0.0,80,0.00,,---,0.00,VWS V15.00,2015-08-28 08:25:00,
2015-08-28 03:30:00,56.5,50.4,29.29,NE,51,0.0,0.0,80,0.00,,---,0.00,VWS V15.00,2015-08-28 08:30:00,
2015-08-28 03:35:00,56.1,50.0,29.29,NE,51,0.0,0.0,80,0.00,,---,0.00,VWS V15.00,2015-08-28 08:35:00,
2015-08-28 03:40:00,55.9,49.9,29.29,NE,51,0.0,0.0,80,0.00,,---,0.00,VWS V15.00,2015-08-28 08:40:00,
2015-08-28 03:45:00,55.8,49.7,29.29,NE,51,0.0,0.0,80,0.00,,---,0.00,VWS V15.00,2015-08-28 08:45:00,
2015-08-28 03:50:00,55.6,49.5,29.29,NE,51,0.0,0.0,80,0.00,,---,0.00,VWS V15.00,2015-08-28 08:50:00,
2015-08-28 03:55:00,55.4,49.3,29.29,NE,51,0.0,0.0,80,0.00,,---,0.00,VWS V15.00,2015-08-28 08:55:00,
2015-08-28 04:00:00,55.8,49.7,29.29,NE,51,0.0,0.0,80,0.00,,---,0.00,VWS V15.00,2015-08-28 09:00:00,
2015-08-28 04:05:00,55.9,49.9,29.29,NE,51,0.0,0.0,80,0.00,,---,0.00,VWS V15.00,2015-08-28 09:05:00,
2015-08-28 04:10:00,55.9,49.9,29.29,NE,51,0.0,0.0,80,0.00,,---,0.00,VWS V15.00,2015-08-28 09:10:00,
2015-08-28 04:15:00,56.1,50.0,29.29,NE,51,0.0,0.0,80,0.00,,---,0.00,VWS V15.00,2015-08-28 09:15:00,
2015-08-28 04:20:00,56.1,50.0,29.29,NE,51,0.0,0.0,80,0.00,,---,0.00,VWS V15.00,2015-08-28 09:20:00,
2015-08-28 04:25:00,56.1,50.0,29.29,NE,51,0.0,0.0,80,0.00,,---,0.00,VWS V15.00,2015-08-28 09:25:00,
2015-08-28 04:30:00,56.1,50.0,29.29,NE,51,0.0,0.0,80,0.00,,---,0.00,VWS V15.00,2015-08-28 09:30:00,
2015-08-28 04:35:00,56.3,50.2,29.29,NE,51,0.0,0.0,80,0.00,,---,0.00,VWS V15.00,2015-08-28 09:35:00,
2015-08-28 04:40:00,56.3,50.2,29.29,NE,51,0.0,0.0,80,0.00,,---,0.00,VWS V15.00,2015-08-28 09:40:00,
2015-08-28 04:45:00,56.3,50.2,29.29,NE,51,0.0,0.0,80,0.00,,---,0.00,VWS V15.00,2015-08-28 09:45:00,
2015-08-28 04:50:00,56.3,50.2,29.29,NE,51,0.0,0.0,80,0.00,,---,0.00,VWS V15.00,2015-08-28 09:50:00,
2015-08-28 04:55:00,56.5,50.4,29.29,NE,51,0.0,0.0,80,0.00,,---,0.00,VWS V15.00,2015-08-28 09:55:00,
2015-08-28 05:00:00,56.7,50.9,29.29,NE,51,0.0,0.0,81,0.00,,---,0.00,VWS V15.00,2015-08-28 10:00:00,
2015-08-28 05:05:00,56.8,51.1,29.29,NE,51,0.0,0.0,81,0.00,,---,0.00,VWS V15.00,2015-08-28 10:05:00,
2015-08-28 05:11:00,56.7,50.6,29.32,NE,51,0.0,0.0,80,0.00,,---,0.00,VWS V15.00,2015-08-28 10:11:00,
2015-08-28 05:16:00,56.5,50.4,29.32,NE,51,0.0,0.0,80,0.00,,---,0.00,VWS V15.00,2015-08-28 10:16:00,
2015-08-28 05:21:00,56.3,50.2,29.32,NE,51,0.0,0.0,80,0.00,,---,0.00,VWS V15.00,2015-08-28 10:21:00,
2015-08-28 05:26:00,56.3,50.5,29.32,NE,51,0.0,0.0,81,0.00,,---,0.00,VWS V15.00,2015-08-28 10:26:00,
2015-08-28 05:31:00,56.3,50.5,29.32,NE,51,0.0,0.0,81,0.00,,---,0.00,VWS V15.00,2015-08-28 10:31:00,
2015-08-28 05:36:00,56.3,50.5,29.32,NE,51,0.0,0.0,81,0.00,,---,0.00,VWS V15.00,2015-08-28 10:36:00,
2015-08-28 05:41:00,56.1,50.4,29.32,NE,51,0.0,0.0,81,0.00,,---,0.00,VWS V15.00,2015-08-28 10:41:00,
2015-08-28 05:46:00,56.1,50.4,29.32,NE,51,0.0,0.0,81,0.00,,---,0.00,VWS V15.00,2015-08-28 10:46:00,
2015-08-28 05:51:00,55.9,50.2,29.32,NE,51,0.0,0.0,81,0.00,,---,0.00,VWS V15.00,2015-08-28 10:51:00,
2015-08-28 05:56:00,55.4,49.7,29.32,NE,51,0.0,0.0,81,0.00,,---,0.00,VWS V15.00,2015-08-28 10:56:00,
2015-08-28 06:01:00,55.2,49.5,29.32,NE,51,0.0,0.0,81,0.00,,---,0.00,VWS V15.00,2015-08-28 11:01:00,
2015-08-28 06:06:00,54.9,49.2,29.32,NE,51,0.0,0.0,81,0.00,,---,0.00,VWS V15.00,2015-08-28 11:06:00,
2015-08-28 06:11:00,54.7,49.0,29.32,NE,51,0.0,0.0,81,0.00,,---,0.00,VWS V15.00,2015-08-28 11:11:00,
2015-08-28 06:16:00,54.5,48.8,29.32,NE,51,0.0,0.0,81,0.00,,---,0.00,VWS V15.00,2015-08-28 11:16:00,
2015-08-28 06:21:00,54.5,48.8,29.32,NE,51,0.0,0.0,81,0.00,,---,0.00,VWS V15.00,2015-08-28 11:21:00,
2015-08-28 06:26:00,54.5,48.8,29.32,NE,51,0.0,0.0,81,0.00,,---,0.00,VWS V15.00,2015-08-28 11:26:00,
2015-08-28 06:31:00,54.5,48.8,29.32,NE,51,0.0,0.0,81,0.00,,---,0.00,VWS V15.00,2015-08-28 11:31:00,
2015-08-28 06:36:00,54.5,48.8,29.32,NE,51,0.0,0.0,81,0.00,,---,0.00,VWS V15.00,2015-08-28 11:36:00,
2015-08-28 06:41:00,54.7,49.0,29.32,NE,51,0.0,0.0,81,0.00,,---,0.00,VWS V15.00,2015-08-28 11:41:00,
2015-08-28 06:46:00,54.9,49.5,29.32,NE,51,0.0,0.0,82,0.00,,---,0.00,VWS V15.00,2015-08-28 11:46:00,
2015-08-28 06:51:00,55.2,49.8,29.32,NE,51,0.0,0.0,82,0.00,,---,0.00,VWS V15.00,2015-08-28 11:51:00,
2015-08-28 06:56:00,55.6,49.8,29.32,NE,51,0.0,0.0,81,0.00,,---,0.00,VWS V15.00,2015-08-28 11:56:00,
2015-08-28 07:01:00,56.1,50.7,29.32,NE,51,0.0,0.0,82,0.00,,---,0.00,VWS V15.00,2015-08-28 12:01:00,
2015-08-28 07:06:00,56.8,51.4,29.32,NE,51,0.0,0.0,82,0.00,,---,0.00,VWS V15.00,2015-08-28 12:06:00,
2015-08-28 07:11:00,57.4,51.9,29.32,NE,51,0.0,0.0,82,0.00,,---,0.00,VWS V15.00,2015-08-28 12:11:00,
2015-08-28 07:16:00,57.9,52.5,29.32,NE,51,0.0,0.0,82,0.00,,---,0.00,VWS V15.00,2015-08-28 12:16:00,
2015-08-28 07:21:00,58.3,52.8,29.32,NE,51,0.0,0.0,82,0.00,,---,0.00,VWS V15.00,2015-08-28 12:21:00,
2015-08-28 07:26:00,58.8,53.3,29.32,NE,51,0.0,0.0,82,0.00,,---,0.00,VWS V15.00,2015-08-28 12:26:00,
2015-08-28 07:31:00,59.5,54.0,29.32,NE,51,0.0,0.0,82,0.00,,---,0.00,VWS V15.00,2015-08-28 12:31:00,
2015-08-28 07:36:00,60.8,55.3,29.32,NE,51,0.0,0.0,82,0.00,,---,0.00,VWS V15.00,2015-08-28 12:36:00,
2015-08-28 07:41:00,62.1,56.5,29.35,NE,51,0.0,0.0,82,0.00,,---,0.00,VWS V15.00,2015-08-28 12:41:00,
2015-08-28 07:46:00,63.1,57.6,29.35,NE,51,0.0,0.0,82,0.00,,---,0.00,VWS V15.00,2015-08-28 12:46:00,
2015-08-28 07:51:00,64.6,59.0,29.35,NE,51,0.0,0.0,82,0.00,,---,0.00,VWS V15.00,2015-08-28 12:51:00,
2015-08-28 07:56:00,65.7,60.0,29.35,North,3,0.0,0.0,82,0.00,,---,0.00,VWS V15.00,2015-08-28 12:56:00,